| time (UTC) | temp F | wind direction | speed MPH | gust MPH | rain 1hr in | rain 24hr in | rain mn in | humidity % | barometer mb |
| 20260507073549 | 37 | 262 | 3.0 | 4.0 | 0.00 | 0.12 | 0.00 | 92 | 1020.3 |
| 20260507073053 | 37 | 239 | 2.0 | 4.0 | 0.00 | 0.12 | 0.00 | 92 | 1020.4 |
| 20260507072549 | 37 | 251 | 2.0 | 4.0 | 0.00 | 0.12 | 0.00 | 92 | 1020.5 |
| 20260507072048 | 38 | 236 | 3.0 | 4.0 | 0.00 | 0.12 | 0.00 | 92 | 1020.5 |
| 20260507071553 | 38 | 259 | 3.0 | 4.0 | 0.00 | 0.12 | 0.00 | 92 | 1020.6 |
| 20260507071048 | 38 | 266 | 3.0 | 4.0 | 0.00 | 0.12 | 0.00 | 92 | 1020.7 |
| 20260507070549 | 39 | 241 | 3.0 | 5.0 | 0.00 | 0.12 | 0.00 | 92 | 1020.8 |
| 20260507070054 | 39 | 249 | 4.0 | 6.0 | 0.00 | 0.12 | 0.00 | 92 | 1020.8 |
| 20260507065548 | 39 | 253 | 4.0 | 6.0 | 0.00 | 0.14 | 0.00 | 92 | 1020.9 |
| 20260507065047 | 39 | 252 | 4.0 | 6.0 | 0.00 | 0.14 | 0.00 | 92 | 1020.8 |
| 20260507064557 | 39 | 236 | 4.0 | 6.0 | 0.00 | 0.14 | 0.00 | 92 | 1020.9 |
| 20260507064049 | 39 | 246 | 3.0 | 5.0 | 0.00 | 0.14 | 0.00 | 92 | 1021.0 |
| 20260507063548 | 39 | 248 | 3.0 | 5.0 | 0.00 | 0.14 | 0.00 | 92 | 1021.1 |
| 20260507063051 | 39 | 238 | 3.0 | 5.0 | 0.00 | 0.14 | 0.00 | 92 | 1021.0 |
| 20260507062548 | 39 | 248 | 4.0 | 5.0 | 0.00 | 0.14 | 0.00 | 92 | 1021.0 |
| 20260507062051 | 40 | 248 | 3.0 | 5.0 | 0.00 | 0.14 | 0.00 | 92 | 1021.0 |
| 20260507061601 | 40 | 238 | 4.0 | 5.0 | 0.00 | 0.14 | 0.00 | 92 | 1021.0 |
| 20260507061049 | 40 | 266 | 4.0 | 5.0 | 0.00 | 0.14 | 0.00 | 91 | 1021.1 |
| 20260507060548 | 40 | 262 | 3.0 | 5.0 | 0.00 | 0.14 | 0.00 | 91 | 1021.1 |
| 20260507060056 | 41 | 257 | 3.0 | 5.0 | 0.00 | 0.14 | 0.00 | 91 | 1021.1 |
| 20260507055550 | 41 | 255 | 4.0 | 5.0 | 0.00 | 0.15 | 0.00 | 91 | 1021.3 |
| 20260507055052 | 42 | 0 | 0.0 | 0.0 | 0.00 | 0.15 | 0.00 | 91 | 1021.3 |
| 20260507054636 | 42 | 0 | 0.0 | 0.0 | 0.00 | 0.15 | 0.00 | 92 | 1021.3 |
| 20260507054048 | 42 | 0 | 0.0 | 0.0 | 0.00 | 0.15 | 0.00 | 92 | 1021.3 |
| 20260507053550 | 42 | 0 | 0.0 | 0.0 | 0.00 | 0.15 | 0.00 | 91 | 1021.3 |
| 20260507053055 | 42 | 0 | 0.0 | 3.0 | 0.00 | 0.15 | 0.00 | 91 | 1021.3 |
| 20260507052547 | 42 | 0 | 0.0 | 4.0 | 0.00 | 0.15 | 0.00 | 91 | 1021.1 |
| 20260507052047 | 43 | 0 | 3.0 | 4.0 | 0.00 | 0.15 | 0.00 | 91 | 1021.1 |
| 20260507051552 | 43 | 257 | 3.0 | 6.0 | 0.00 | 0.15 | 0.00 | 91 | 1021.1 |
| 20260507051050 | 43 | 269 | 4.0 | 6.0 | 0.00 | 0.15 | 0.00 | 91 | 1021.3 |
| 20260507050549 | 43 | 273 | 4.0 | 6.0 | 0.00 | 0.15 | 0.00 | 91 | 1021.3 |
| 20260507050057 | 43 | 273 | 4.0 | 6.0 | 0.00 | 0.15 | 0.00 | 91 | 1021.3 |
| 20260507045548 | 43 | 264 | 3.0 | 6.0 | 0.00 | 0.15 | 0.15 | 91 | 1021.4 |
| 20260507045047 | 44 | 250 | 3.0 | 4.0 | 0.00 | 0.15 | 0.15 | 91 | 1021.3 |
| 20260507044600 | 44 | 250 | 2.0 | 5.0 | 0.00 | 0.15 | 0.15 | 91 | 1021.4 |
| 20260507044048 | 44 | 250 | 3.0 | 5.0 | 0.00 | 0.15 | 0.15 | 91 | 1021.4 |
| 20260507043548 | 44 | 264 | 4.0 | 5.0 | 0.00 | 0.15 | 0.15 | 91 | 1021.5 |
| 20260507043054 | 44 | 266 | 2.0 | 4.0 | 0.00 | 0.15 | 0.15 | 91 | 1021.5 |
| 20260507042547 | 44 | 262 | 2.0 | 4.0 | 0.00 | 0.15 | 0.15 | 91 | 1021.7 |
| 20260507042047 | 44 | 262 | 3.0 | 4.0 | 0.00 | 0.15 | 0.15 | 91 | 1021.6 |
| 20260507041602 | 44 | 0 | 0.0 | 0.0 | 0.00 | 0.15 | 0.15 | 91 | 1021.5 |
| 20260507041048 | 44 | 0 | 0.0 | 1.0 | 0.00 | 0.15 | 0.15 | 91 | 1021.5 |
| 20260507040547 | 44 | 0 | 0.0 | 1.0 | 0.00 | 0.15 | 0.15 | 91 | 1021.5 |
| 20260507040058 | 44 | 275 | 0.0 | 2.0 | 0.00 | 0.15 | 0.15 | 91 | 1021.5 |
| 20260507035547 | 44 | 0 | 0.0 | 2.0 | 0.00 | 0.15 | 0.15 | 91 | 1021.5 |
| 20260507035047 | 44 | 0 | 0.0 | 2.0 | 0.00 | 0.15 | 0.15 | 90 | 1021.5 |
| 20260507034558 | 44 | 0 | 0.0 | 2.0 | 0.00 | 0.15 | 0.15 | 90 | 1021.6 |
| 20260507034047 | 44 | 0 | 0.0 | 2.0 | 0.00 | 0.15 | 0.15 | 90 | 1021.5 |
| 20260507033549 | 44 | 306 | 1.0 | 2.0 | 0.00 | 0.15 | 0.15 | 90 | 1021.5 |
| 20260507033056 | 44 | 314 | 1.0 | 2.0 | 0.00 | 0.15 | 0.15 | 90 | 1021.4 |
| 20260507032549 | 44 | 320 | 0.0 | 2.0 | 0.00 | 0.15 | 0.15 | 89 | 1021.4 |
| 20260507032051 | 44 | 0 | 1.0 | 2.0 | 0.00 | 0.15 | 0.15 | 88 | 1021.4 |
| 20260507031605 | 44 | 280 | 2.0 | 2.0 | 0.00 | 0.15 | 0.15 | 88 | 1021.4 |
| 20260507031050 | 44 | 270 | 2.0 | 2.0 | 0.00 | 0.15 | 0.15 | 88 | 1021.2 |
| 20260507030547 | 45 | 269 | 2.0 | 3.0 | 0.00 | 0.15 | 0.15 | 88 | 1021.1 |
| 20260507030057 | 45 | 274 | 2.0 | 3.0 | 0.00 | 0.15 | 0.15 | 88 | 1021.0 |
| 20260507025549 | 45 | 301 | 2.0 | 3.0 | 0.00 | 0.15 | 0.15 | 88 | 1021.0 |
| 20260507025048 | 45 | 287 | 2.0 | 3.0 | 0.00 | 0.15 | 0.15 | 87 | 1020.9 |
| 20260507024556 | 45 | 302 | 1.0 | 2.0 | 0.00 | 0.15 | 0.15 | 87 | 1020.7 |
| 20260507024049 | 45 | 300 | 1.0 | 2.0 | 0.00 | 0.15 | 0.15 | 87 | 1020.7 |
| 20260507023548 | 45 | 0 | 1.0 | 2.0 | 0.00 | 0.15 | 0.15 | 86 | 1020.5 |
| 20260507023103 | 45 | 332 | 1.0 | 2.0 | 0.00 | 0.15 | 0.15 | 86 | 1020.5 |
| 20260507022548 | 45 | 339 | 0.0 | 3.0 | 0.00 | 0.15 | 0.15 | 85 | 1020.4 |
| 20260507022048 | 45 | 314 | 2.0 | 4.0 | 0.00 | 0.15 | 0.15 | 85 | 1020.4 |
| 20260507021554 | 45 | 306 | 2.0 | 4.0 | 0.00 | 0.15 | 0.15 | 84 | 1020.2 |
| 20260507021050 | 45 | 304 | 2.0 | 3.0 | 0.00 | 0.15 | 0.15 | 84 | 1020.1 |
| 20260507020548 | 45 | 313 | 2.0 | 3.0 | 0.00 | 0.15 | 0.15 | 84 | 1020.1 |
| 20260507020056 | 46 | 302 | 2.0 | 4.0 | 0.00 | 0.15 | 0.15 | 84 | 1020.1 |
| 20260507015548 | 46 | 300 | 2.0 | 4.0 | 0.00 | 0.15 | 0.15 | 83 | 1020.1 |
| 20260507015047 | 46 | 299 | 2.0 | 4.0 | 0.00 | 0.15 | 0.15 | 83 | 1020.2 |
| 20260507014604 | 46 | 305 | 2.0 | 6.0 | 0.00 | 0.15 | 0.15 | 83 | 1020.2 |
| 20260507014048 | 46 | 308 | 3.0 | 6.0 | 0.00 | 0.15 | 0.15 | 83 | 1020.2 |
| 20260507013547 | 46 | 294 | 4.0 | 6.0 | 0.00 | 0.15 | 0.15 | 82 | 1020.2 |
| 20260507013053 | 46 | 293 | 2.0 | 6.0 | 0.00 | 0.15 | 0.15 | 82 | 1020.4 |
| 20260507012548 | 47 | 288 | 4.0 | 6.0 | 0.00 | 0.15 | 0.15 | 81 | 1020.3 |
| 20260507012048 | 47 | 289 | 4.0 | 6.0 | 0.00 | 0.15 | 0.15 | 80 | 1020.2 |
| 20260507011552 | 47 | 285 | 2.0 | 3.0 | 0.00 | 0.15 | 0.15 | 80 | 1020.0 |
| 20260507011048 | 47 | 285 | 1.0 | 3.0 | 0.00 | 0.15 | 0.15 | 80 | 1019.9 |
| 20260507010548 | 47 | 285 | 1.0 | 3.0 | 0.00 | 0.15 | 0.15 | 78 | 1019.9 |
| 20260507010054 | 47 | 0 | 0.0 | 3.0 | 0.00 | 0.15 | 0.15 | 77 | 1019.9 |
| 20260507005548 | 47 | 0 | 0.0 | 4.0 | 0.00 | 0.15 | 0.15 | 76 | 1019.8 |
| 20260507005048 | 47 | 0 | 0.0 | 4.0 | 0.00 | 0.15 | 0.15 | 75 | 1019.8 |
| 20260507004552 | 47 | 0 | 0.0 | 0.0 | 0.00 | 0.15 | 0.15 | 75 | 1019.8 |
| 20260507004048 | 48 | 0 | 0.0 | 0.0 | 0.00 | 0.15 | 0.15 | 75 | 1019.7 |
| 20260507003548 | 47 | 0 | 0.0 | 0.0 | 0.00 | 0.15 | 0.15 | 75 | 1019.7 |
| 20260507003055 | 47 | 0 | 0.0 | 0.0 | 0.00 | 0.15 | 0.15 | 74 | 1019.8 |
| 20260507002548 | 47 | 0 | 0.0 | 0.0 | 0.00 | 0.15 | 0.15 | 74 | 1019.8 |
| 20260507002050 | 47 | 0 | 0.0 | 0.0 | 0.00 | 0.15 | 0.15 | 74 | 1019.8 |
| 20260507001551 | 47 | 0 | 0.0 | 2.0 | 0.00 | 0.15 | 0.15 | 74 | 1019.7 |
| 20260507001046 | 47 | 0 | 0.0 | 3.0 | 0.00 | 0.15 | 0.15 | 73 | 1019.8 |
| 20260507000552 | 48 | 0 | 1.0 | 3.0 | 0.00 | 0.15 | 0.15 | 74 | 1019.9 |
| 20260507000051 | 48 | 0 | 0.0 | 2.0 | 0.00 | 0.15 | 0.15 | 74 | 1019.8 |
| 20260506235547 | 48 | 0 | 0.0 | 2.0 | 0.00 | 0.15 | 0.15 | 74 | 1019.6 |
| 20260506235050 | 48 | 122 | 1.0 | 2.0 | 0.00 | 0.15 | 0.15 | 75 | 1019.6 |
| 20260506234554 | 48 | 0 | 0.0 | 1.0 | 0.00 | 0.15 | 0.15 | 75 | 1019.5 |
| 20260506234047 | 48 | 0 | 0.0 | 1.0 | 0.00 | 0.15 | 0.15 | 75 | 1019.6 |
| 20260506233547 | 48 | 0 | 0.0 | 4.0 | 0.00 | 0.15 | 0.15 | 75 | 1019.6 |
| 20260506233108 | 48 | 0 | 0.0 | 4.0 | 0.00 | 0.15 | 0.15 | 74 | 1019.7 |
| 20260506232549 | 48 | 0 | 0.0 | 1.0 | 0.00 | 0.15 | 0.15 | 74 | 1019.7 |
| 20260506232047 | 48 | 0 | 0.0 | 2.0 | 0.00 | 0.15 | 0.15 | 74 | 1019.6 |
| 20260506231550 | 48 | 0 | 0.0 | 2.0 | 0.00 | 0.15 | 0.15 | 75 | 1019.4 |
| 20260506231046 | 48 | 0 | 0.0 | 1.0 | 0.00 | 0.15 | 0.15 | 76 | 1019.3 |
| 20260506230547 | 48 | 312 | 0.0 | 2.0 | 0.00 | 0.15 | 0.15 | 75 | 1019.3 |
| 20260506230053 | 48 | 0 | 0.0 | 7.0 | 0.00 | 0.15 | 0.15 | 76 | 1019.5 |
| 20260506225547 | 48 | 312 | 2.0 | 7.0 | 0.00 | 0.15 | 0.15 | 76 | 1019.7 |
| 20260506225046 | 48 | 6 | 2.0 | 3.0 | 0.00 | 0.15 | 0.15 | 75 | 1019.5 |
| 20260506224550 | 48 | 0 | 0.0 | 3.0 | 0.00 | 0.15 | 0.15 | 78 | 1019.4 |
| 20260506224052 | 48 | 4 | 0.0 | 3.0 | 0.00 | 0.15 | 0.15 | 78 | 1019.4 |
| 20260506223552 | 47 | 0 | 0.0 | 4.0 | 0.00 | 0.15 | 0.15 | 80 | 1019.3 |
| 20260506223050 | 47 | 83 | 2.0 | 4.0 | 0.00 | 0.15 | 0.15 | 80 | 1019.2 |
| 20260506222549 | 47 | 89 | 1.0 | 4.0 | 0.00 | 0.15 | 0.15 | 81 | 1019.3 |
| 20260506222049 | 47 | 88 | 2.0 | 4.0 | 0.00 | 0.15 | 0.15 | 81 | 1019.4 |
| 20260506221553 | 47 | 82 | 0.0 | 4.0 | 0.00 | 0.15 | 0.15 | 81 | 1019.4 |
| 20260506221048 | 47 | 60 | 0.0 | 4.0 | 0.00 | 0.15 | 0.15 | 81 | 1019.5 |
| 20260506220547 | 46 | 0 | 2.0 | 4.0 | 0.00 | 0.15 | 0.15 | 81 | 1019.5 |
| 20260506220052 | 46 | 0 | 1.0 | 4.0 | 0.00 | 0.15 | 0.15 | 81 | 1019.5 |
| 20260506215549 | 46 | 0 | 1.0 | 4.0 | 0.00 | 0.15 | 0.15 | 82 | 1019.5 |
| 20260506215047 | 46 | 70 | 1.0 | 4.0 | 0.00 | 0.15 | 0.15 | 82 | 1019.6 |
| 20260506214554 | 46 | 34 | 2.0 | 6.0 | 0.00 | 0.15 | 0.15 | 81 | 1019.5 |
| 20260506214047 | 46 | 105 | 2.0 | 7.0 | 0.00 | 0.15 | 0.15 | 81 | 1019.6 |
| 20260506213546 | 46 | 85 | 3.0 | 8.0 | 0.00 | 0.15 | 0.15 | 81 | 1019.5 |
| 20260506213111 | 46 | 84 | 6.0 | 8.0 | 0.00 | 0.15 | 0.15 | 81 | 1019.5 |
| 20260506212549 | 46 | 91 | 2.0 | 9.0 | 0.00 | 0.15 | 0.15 | 82 | 1019.5 |
| 20260506212049 | 47 | 66 | 4.0 | 9.0 | 0.00 | 0.15 | 0.15 | 80 | 1019.5 |
| 20260506211554 | 47 | 91 | 3.0 | 6.0 | 0.00 | 0.15 | 0.15 | 81 | 1019.6 |
| 20260506211050 | 47 | 91 | 0.0 | 2.0 | 0.00 | 0.15 | 0.15 | 82 | 1019.7 |
| 20260506210547 | 47 | 0 | 1.0 | 5.0 | 0.00 | 0.15 | 0.15 | 82 | 1019.6 |
| 20260506210054 | 47 | 0 | 0.0 | 6.0 | 0.00 | 0.15 | 0.15 | 82 | 1019.8 |
| 20260506205548 | 46 | 113 | 2.0 | 6.0 | 0.00 | 0.15 | 0.15 | 82 | 1020.0 |
| 20260506205047 | 47 | 20 | 1.0 | 6.0 | 0.00 | 0.15 | 0.15 | 82 | 1020.0 |
| 20260506204559 | 47 | 0 | 1.0 | 7.0 | 0.00 | 0.15 | 0.15 | 84 | 1020.0 |
| 20260506204046 | 47 | 72 | 3.0 | 7.0 | 0.00 | 0.15 | 0.15 | 84 | 1020.0 |
| 20260506203550 | 47 | 59 | 3.0 | 6.0 | 0.00 | 0.15 | 0.15 | 85 | 1020.0 |
| 20260506203053 | 47 | 97 | 2.0 | 6.0 | 0.00 | 0.15 | 0.15 | 87 | 1020.0 |
| 20260506202549 | 47 | 94 | 0.0 | 6.0 | 0.00 | 0.15 | 0.15 | 88 | 1020.0 |
| 20260506202047 | 46 | 103 | 0.0 | 7.0 | 0.00 | 0.15 | 0.15 | 88 | 1020.1 |
| 20260506201553 | 46 | 62 | 1.0 | 9.0 | 0.00 | 0.15 | 0.15 | 89 | 1020.2 |
| 20260506201046 | 46 | 78 | 5.0 | 9.0 | 0.00 | 0.15 | 0.15 | 89 | 1020.2 |
| 20260506200546 | 45 | 68 | 3.0 | 8.0 | 0.00 | 0.15 | 0.15 | 91 | 1020.2 |
| 20260506200053 | 45 | 76 | 3.0 | 7.0 | 0.00 | 0.15 | 0.15 | 92 | 1020.3 |
| 20260506195549 | 45 | 100 | 3.0 | 9.0 | 0.01 | 0.15 | 0.15 | 92 | 1020.2 |
| 20260506195049 | 45 | 73 | 2.0 | 9.0 | 0.01 | 0.15 | 0.15 | 93 | 1020.2 |
| 20260506194628 | 44 | 115 | 5.0 | 10.0 | 0.01 | 0.15 | 0.15 | 93 | 1020.2 |
| 20260506194054 | 44 | 82 | 4.0 | 10.0 | 0.01 | 0.15 | 0.15 | 93 | 1020.2 |
| 20260506193549 | 44 | 69 | 1.0 | 7.0 | 0.01 | 0.15 | 0.15 | 93 | 1020.2 |
| 20260506193102 | 44 | 77 | 3.0 | 8.0 | 0.01 | 0.15 | 0.15 | 93 | 1020.3 |
| 20260506192547 | 43 | 46 | 4.0 | 8.0 | 0.01 | 0.15 | 0.15 | 93 | 1020.2 |
| 20260506192051 | 43 | 70 | 4.0 | 8.0 | 0.01 | 0.15 | 0.15 | 93 | 1020.2 |
| 20260506191551 | 43 | 103 | 4.0 | 7.0 | 0.01 | 0.15 | 0.15 | 93 | 1020.2 |
| 20260506191046 | 43 | 127 | 2.0 | 7.0 | 0.01 | 0.15 | 0.15 | 93 | 1020.2 |
| 20260506190547 | 43 | 73 | 2.0 | 7.0 | 0.01 | 0.15 | 0.15 | 93 | 1020.3 |
| 20260506190052 | 43 | 77 | 3.0 | 7.0 | 0.01 | 0.15 | 0.15 | 93 | 1020.3 |
| 20260506185546 | 43 | 63 | 2.0 | 7.0 | 0.00 | 0.14 | 0.14 | 93 | 1020.4 |
| 20260506185046 | 43 | 75 | 1.0 | 6.0 | 0.00 | 0.14 | 0.14 | 93 | 1020.5 |
| 20260506184550 | 43 | 92 | 2.0 | 6.0 | 0.00 | 0.14 | 0.14 | 93 | 1020.6 |
| 20260506184047 | 43 | 70 | 1.0 | 6.0 | 0.00 | 0.14 | 0.14 | 93 | 1020.6 |
| 20260506183549 | 42 | 0 | 0.0 | 6.0 | 0.01 | 0.14 | 0.14 | 93 | 1020.7 |
| 20260506183057 | 42 | 58 | 3.0 | 6.0 | 0.01 | 0.14 | 0.14 | 93 | 1020.7 |
| 20260506182548 | 42 | 56 | 2.0 | 6.0 | 0.01 | 0.14 | 0.14 | 93 | 1020.7 |
| 20260506182048 | 42 | 0 | 3.0 | 9.0 | 0.01 | 0.14 | 0.14 | 93 | 1020.8 |
| 20260506181556 | 42 | 67 | 2.0 | 9.0 | 0.01 | 0.14 | 0.14 | 93 | 1020.9 |
| 20260506181049 | 42 | 80 | 3.0 | 8.0 | 0.01 | 0.14 | 0.14 | 93 | 1020.9 |
| 20260506180550 | 42 | 72 | 2.0 | 8.0 | 0.01 | 0.14 | 0.14 | 93 | 1021.0 |
| 20260506175550 | 41 | 88 | 1.0 | 7.0 | 0.02 | 0.14 | 0.14 | 93 | 1021.0 |
| 20260506175046 | 41 | 0 | 3.0 | 7.0 | 0.02 | 0.14 | 0.14 | 93 | 1021.0 |
| 20260506174555 | 41 | 83 | 1.0 | 7.0 | 0.02 | 0.14 | 0.14 | 93 | 1021.0 |
| 20260506174048 | 41 | 50 | 3.0 | 10.0 | 0.02 | 0.14 | 0.14 | 93 | 1021.0 |
| 20260506173547 | 41 | 84 | 3.0 | 10.0 | 0.02 | 0.13 | 0.13 | 93 | 1021.0 |
| 20260506173057 | 41 | 72 | 2.0 | 5.0 | 0.02 | 0.13 | 0.13 | 93 | 1021.0 |
| 20260506172546 | 41 | 77 | 0.0 | 7.0 | 0.02 | 0.13 | 0.13 | 93 | 1020.9 |
| 20260506172046 | 41 | 0 | 1.0 | 7.0 | 0.02 | 0.13 | 0.13 | 93 | 1020.9 |
| 20260506171557 | 41 | 88 | 2.0 | 7.0 | 0.02 | 0.13 | 0.13 | 93 | 1020.9 |
| 20260506171054 | 41 | 58 | 1.0 | 7.0 | 0.02 | 0.13 | 0.13 | 93 | 1020.9 |
| 20260506170549 | 41 | 0 | 3.0 | 8.0 | 0.02 | 0.13 | 0.13 | 93 | 1020.9 |
| 20260506170103 | 41 | 0 | 1.0 | 8.0 | 0.03 | 0.13 | 0.13 | 93 | 1020.8 |
| 20260506165547 | 41 | 41 | 2.0 | 8.0 | 0.02 | 0.12 | 0.12 | 93 | 1020.9 |
| 20260506165047 | 41 | 55 | 3.0 | 7.0 | 0.02 | 0.12 | 0.12 | 93 | 1020.8 |
| 20260506164551 | 41 | 57 | 2.0 | 7.0 | 0.02 | 0.12 | 0.12 | 93 | 1020.8 |
| 20260506164051 | 41 | 77 | 2.0 | 7.0 | 0.02 | 0.12 | 0.12 | 93 | 1020.8 |
| 20260506163547 | 41 | 28 | 2.0 | 7.0 | 0.01 | 0.11 | 0.11 | 93 | 1020.8 |
| 20260506163111 | 41 | 8 | 2.0 | 10.0 | 0.02 | 0.11 | 0.11 | 93 | 1020.6 |
| 20260506162548 | 41 | 49 | 4.0 | 10.0 | 0.02 | 0.11 | 0.11 | 93 | 1020.5 |
| 20260506162051 | 41 | 38 | 3.0 | 7.0 | 0.02 | 0.11 | 0.11 | 93 | 1020.5 |
| 20260506161551 | 41 | 0 | 2.0 | 6.0 | 0.02 | 0.11 | 0.11 | 93 | 1020.5 |
| 20260506161048 | 41 | 15 | 0.0 | 2.0 | 0.02 | 0.11 | 0.11 | 93 | 1020.4 |
| 20260506160548 | 41 | 0 | 0.0 | 5.0 | 0.02 | 0.11 | 0.11 | 93 | 1020.3 |
| 20260506160056 | 41 | 0 | 0.0 | 9.0 | 0.01 | 0.10 | 0.10 | 93 | 1020.1 |
| 20260506155552 | 41 | 25 | 1.0 | 9.0 | 0.02 | 0.10 | 0.10 | 93 | 1020.0 |
| 20260506155049 | 41 | 62 | 0.0 | 5.0 | 0.02 | 0.10 | 0.10 | 93 | 1020.1 |
| 20260506154615 | 41 | 44 | 2.0 | 5.0 | 0.02 | 0.10 | 0.10 | 93 | 1020.2 |
| 20260506154049 | 41 | 0 | 1.0 | 4.0 | 0.02 | 0.10 | 0.10 | 93 | 1020.1 |
| 20260506153547 | 41 | 0 | 1.0 | 5.0 | 0.02 | 0.10 | 0.10 | 93 | 1020.1 |
| 20260506153058 | 41 | 88 | 0.0 | 6.0 | 0.01 | 0.09 | 0.09 | 93 | 1020.0 |
| 20260506152548 | 40 | 0 | 2.0 | 7.0 | 0.01 | 0.09 | 0.09 | 93 | 1020.0 |
| 20260506152049 | 41 | 75 | 3.0 | 7.0 | 0.01 | 0.09 | 0.09 | 93 | 1020.0 |
| 20260506151558 | 41 | 14 | 2.0 | 6.0 | 0.01 | 0.09 | 0.09 | 93 | 1020.0 |
| 20260506151047 | 41 | 94 | 1.0 | 5.0 | 0.01 | 0.09 | 0.09 | 93 | 1020.0 |
| 20260506150549 | 41 | 0 | 2.0 | 6.0 | 0.01 | 0.09 | 0.09 | 93 | 1019.8 |
| 20260506150051 | 40 | 82 | 3.0 | 8.0 | 0.01 | 0.09 | 0.09 | 93 | 1019.8 |
| 20260506145549 | 40 | 64 | 2.0 | 8.0 | 0.00 | 0.08 | 0.08 | 93 | 1019.8 |
| 20260506145049 | 40 | 56 | 2.0 | 8.0 | 0.00 | 0.08 | 0.08 | 93 | 1019.8 |
| 20260506144555 | 40 | 57 | 2.0 | 8.0 | 0.00 | 0.08 | 0.08 | 93 | 1019.8 |
| 20260506144049 | 40 | 72 | 2.0 | 6.0 | 0.00 | 0.08 | 0.08 | 93 | 1019.7 |
| 20260506143549 | 40 | 323 | 2.0 | 7.0 | 0.01 | 0.08 | 0.08 | 93 | 1019.7 |
| 20260506143104 | 40 | 72 | 2.0 | 7.0 | 0.01 | 0.08 | 0.08 | 93 | 1019.8 |
| 20260506142547 | 40 | 91 | 1.0 | 7.0 | 0.01 | 0.08 | 0.08 | 93 | 1019.8 |
| 20260506142048 | 40 | 80 | 1.0 | 4.0 | 0.01 | 0.08 | 0.08 | 93 | 1019.8 |
| 20260506141556 | 40 | 49 | 1.0 | 4.0 | 0.01 | 0.08 | 0.08 | 93 | 1019.8 |
| 20260506141053 | 40 | 0 | 0.0 | 0.0 | 0.01 | 0.08 | 0.08 | 93 | 1019.7 |
| 20260506140549 | 40 | 0 | 0.0 | 0.0 | 0.01 | 0.08 | 0.08 | 93 | 1019.8 |
| 20260506140057 | 40 | 0 | 0.0 | 0.0 | 0.01 | 0.08 | 0.08 | 93 | 1019.9 |
| 20260506135548 | 40 | 0 | 0.0 | 0.0 | 0.01 | 0.08 | 0.08 | 93 | 1019.8 |
| 20260506135049 | 40 | 0 | 0.0 | 0.0 | 0.01 | 0.08 | 0.08 | 93 | 1019.8 |
| 20260506134550 | 40 | 0 | 0.0 | 0.0 | 0.01 | 0.08 | 0.08 | 93 | 1019.8 |
| 20260506134048 | 40 | 0 | 0.0 | 0.0 | 0.01 | 0.08 | 0.08 | 93 | 1019.8 |
| 20260506133547 | 40 | 0 | 0.0 | 0.0 | 0.00 | 0.07 | 0.07 | 93 | 1019.9 |
| 20260506133057 | 40 | 0 | 0.0 | 0.0 | 0.00 | 0.07 | 0.07 | 93 | 1019.8 |
| 20260506132548 | 40 | 0 | 0.0 | 0.0 | 0.00 | 0.07 | 0.07 | 93 | 1019.7 |
| 20260506132048 | 40 | 0 | 0.0 | 0.0 | 0.00 | 0.07 | 0.07 | 93 | 1019.8 |
| 20260506131553 | 39 | 0 | 0.0 | 0.0 | 0.00 | 0.07 | 0.07 | 93 | 1019.8 |
| 20260506131048 | 39 | 0 | 0.0 | 0.0 | 0.00 | 0.07 | 0.07 | 93 | 1019.6 |
| 20260506130549 | 39 | 0 | 0.0 | 0.0 | 0.00 | 0.07 | 0.07 | 93 | 1019.3 |
| 20260506130052 | 39 | 0 | 0.0 | 0.0 | 0.00 | 0.07 | 0.07 | 93 | 1019.4 |
| 20260506125551 | 39 | 0 | 0.0 | 0.0 | 0.00 | 0.07 | 0.07 | 93 | 1019.6 |
| 20260506125052 | 39 | 0 | 0.0 | 0.0 | 0.00 | 0.07 | 0.07 | 93 | 1019.5 |
| 20260506124552 | 39 | 0 | 0.0 | 0.0 | 0.00 | 0.07 | 0.07 | 92 | 1019.3 |
| 20260506124048 | 39 | 0 | 0.0 | 0.0 | 0.00 | 0.07 | 0.07 | 92 | 1018.6 |
| 20260506123550 | 39 | 0 | 0.0 | 0.0 | 0.00 | 0.07 | 0.07 | 92 | 1018.7 |
| 20260506123057 | 39 | 0 | 0.0 | 0.0 | 0.00 | 0.07 | 0.07 | 92 | 1018.4 |
| 20260506122549 | 39 | 0 | 0.0 | 0.0 | 0.01 | 0.07 | 0.07 | 92 | 1018.3 |
| 20260506122048 | 39 | 0 | 0.0 | 0.0 | 0.01 | 0.07 | 0.07 | 92 | 1018.2 |
| 20260506121553 | 39 | 0 | 0.0 | 0.0 | 0.01 | 0.07 | 0.07 | 92 | 1018.1 |
| 20260506121048 | 39 | 0 | 0.0 | 0.0 | 0.01 | 0.07 | 0.07 | 92 | 1018.1 |
| 20260506120548 | 39 | 0 | 0.0 | 0.0 | 0.01 | 0.07 | 0.07 | 92 | 1018.2 |
| 20260506120058 | 39 | 0 | 0.0 | 0.0 | 0.01 | 0.07 | 0.07 | 92 | 1017.9 |
| 20260506115548 | 39 | 0 | 0.0 | 1.0 | 0.01 | 0.07 | 0.07 | 92 | 1017.9 |
| 20260506115047 | 39 | 0 | 0.0 | 3.0 | 0.01 | 0.07 | 0.07 | 92 | 1017.9 |
| 20260506114559 | 39 | 0 | 0.0 | 3.0 | 0.01 | 0.07 | 0.07 | 92 | 1017.9 |
| 20260506114051 | 39 | 28 | 0.0 | 3.0 | 0.01 | 0.07 | 0.07 | 92 | 1017.9 |
| 20260506113549 | 39 | 0 | 0.0 | 2.0 | 0.01 | 0.07 | 0.07 | 92 | 1017.5 |
| 20260506113057 | 39 | 23 | 0.0 | 2.0 | 0.01 | 0.07 | 0.07 | 92 | 1017.5 |
| 20260506112548 | 39 | 0 | 0.0 | 2.0 | 0.00 | 0.06 | 0.06 | 92 | 1017.3 |
| 20260506112050 | 39 | 0 | 0.0 | 2.0 | 0.00 | 0.06 | 0.06 | 92 | 1017.5 |
| 20260506111557 | 40 | 0 | 0.0 | 2.0 | 0.00 | 0.06 | 0.06 | 92 | 1017.6 |
| 20260506111047 | 40 | 31 | 0.0 | 2.0 | 0.00 | 0.06 | 0.06 | 92 | 1017.7 |
| 20260506110548 | 40 | 0 | 0.0 | 1.0 | 0.00 | 0.06 | 0.06 | 92 | 1017.6 |
| 20260506105549 | 40 | 0 | 0.0 | 3.0 | 0.00 | 0.06 | 0.06 | 92 | 1017.6 |
| 20260506105048 | 40 | 0 | 1.0 | 3.0 | 0.00 | 0.06 | 0.06 | 92 | 1017.6 |
| 20260506104556 | 40 | 8 | 0.0 | 3.0 | 0.00 | 0.06 | 0.06 | 92 | 1017.5 |
| 20260506104048 | 40 | 0 | 0.0 | 3.0 | 0.00 | 0.06 | 0.06 | 92 | 1017.6 |
| 20260506103552 | 40 | 0 | 0.0 | 0.0 | 0.00 | 0.06 | 0.06 | 92 | 1017.4 |
| 20260506103053 | 40 | 0 | 0.0 | 0.0 | 0.01 | 0.06 | 0.06 | 92 | 1017.4 |
| 20260506102548 | 39 | 0 | 0.0 | 0.0 | 0.01 | 0.06 | 0.06 | 92 | 1017.3 |
| 20260506102047 | 39 | 0 | 0.0 | 0.0 | 0.02 | 0.06 | 0.06 | 92 | 1017.3 |
| 20260506101606 | 39 | 0 | 0.0 | 2.0 | 0.02 | 0.06 | 0.06 | 92 | 1017.2 |
| 20260506101047 | 39 | 0 | 0.0 | 3.0 | 0.02 | 0.06 | 0.06 | 92 | 1016.8 |
| 20260506100547 | 39 | 0 | 0.0 | 3.0 | 0.02 | 0.06 | 0.06 | 92 | 1016.6 |
| 20260506100056 | 39 | 0 | 0.0 | 4.0 | 0.02 | 0.06 | 0.06 | 92 | 1016.5 |
| 20260506095549 | 39 | 109 | 0.0 | 4.0 | 0.02 | 0.06 | 0.06 | 92 | 1016.3 |
| 20260506095048 | 39 | 86 | 2.0 | 4.0 | 0.02 | 0.06 | 0.06 | 92 | 1016.6 |
| 20260506094622 | 39 | 0 | 1.0 | 4.0 | 0.02 | 0.06 | 0.06 | 92 | 1017.0 |
| 20260506094047 | 40 | 0 | 1.0 | 4.0 | 0.02 | 0.06 | 0.06 | 92 | 1017.2 |
| 20260506093548 | 40 | 88 | 1.0 | 4.0 | 0.02 | 0.06 | 0.06 | 92 | 1017.0 |
| 20260506093057 | 40 | 94 | 1.0 | 4.0 | 0.01 | 0.05 | 0.05 | 92 | 1016.9 |
| 20260506092549 | 40 | 49 | 1.0 | 6.0 | 0.01 | 0.05 | 0.05 | 92 | 1017.0 |
| 20260506092048 | 40 | 76 | 2.0 | 6.0 | 0.00 | 0.04 | 0.04 | 92 | 1017.1 |
| 20260506091600 | 40 | 74 | 1.0 | 4.0 | 0.00 | 0.04 | 0.04 | 92 | 1016.9 |
| 20260506091048 | 40 | 92 | 1.0 | 6.0 | 0.00 | 0.04 | 0.04 | 92 | 1017.1 |
| 20260506090547 | 40 | 53 | 1.0 | 6.0 | 0.00 | 0.04 | 0.04 | 92 | 1017.0 |
| 20260506090052 | 40 | 94 | 3.0 | 7.0 | 0.00 | 0.04 | 0.04 | 92 | 1016.7 |
| 20260506085548 | 40 | 93 | 2.0 | 7.0 | 0.00 | 0.04 | 0.04 | 92 | 1017.0 |
| 20260506085049 | 40 | 84 | 2.0 | 7.0 | 0.00 | 0.04 | 0.04 | 92 | 1017.0 |
| 20260506084552 | 40 | 79 | 3.0 | 8.0 | 0.00 | 0.04 | 0.04 | 92 | 1017.0 |
| 20260506084053 | 40 | 50 | 2.0 | 9.0 | 0.00 | 0.04 | 0.04 | 92 | 1016.9 |
| 20260506083550 | 40 | 89 | 3.0 | 9.0 | 0.00 | 0.04 | 0.04 | 92 | 1017.0 |
| 20260506083052 | 40 | 67 | 3.0 | 7.0 | 0.00 | 0.04 | 0.04 | 92 | 1017.1 |
| 20260506082553 | 40 | 61 | 3.0 | 7.0 | 0.00 | 0.04 | 0.04 | 92 | 1017.0 |
| 20260506082047 | 40 | 96 | 0.0 | 9.0 | 0.00 | 0.04 | 0.04 | 92 | 1017.1 |
| 20260506081552 | 40 | 91 | 3.0 | 9.0 | 0.01 | 0.04 | 0.04 | 91 | 1017.3 |
| 20260506081047 | 40 | 103 | 5.0 | 9.0 | 0.01 | 0.04 | 0.04 | 91 | 1017.1 |
| 20260506080548 | 40 | 72 | 5.0 | 10.0 | 0.01 | 0.04 | 0.04 | 91 | 1017.3 |